Time,TemperatureF,DewpointF,PressureIn,WindDirection,WindDirectionDegrees,WindSpeedMPH,WindSpeedGustMPH,Humidity,HourlyPrecipIn,Conditions,Clouds,dailyrainin,SoftwareType,DateUTC
2013-06-17 00:01:00,71.8,64.9,30.00,SSE,148,2.0,5.0,79,0.00,,---,0.00,VWS V14.00,2013-06-17 04:01:00,
2013-06-17 00:06:00,71.7,64.8,30.00,SSE,148,0.0,5.0,79,0.00,,---,0.00,VWS V14.00,2013-06-17 04:06:00,
2013-06-17 00:11:00,71.7,65.2,29.99,SSE,148,0.0,1.0,80,0.00,,---,0.00,VWS V14.00,2013-06-17 04:11:00,
2013-06-17 00:16:00,71.6,65.1,29.99,SSE,147,0.0,4.0,80,0.00,,---,0.00,VWS V14.00,2013-06-17 04:16:00,
2013-06-17 00:21:00,71.4,65.3,29.99,South,180,0.0,4.0,81,0.00,,---,0.00,VWS V14.00,2013-06-17 04:21:00,
2013-06-17 00:26:00,71.3,65.2,29.99,South,180,0.0,4.0,81,0.00,,---,0.00,VWS V14.00,2013-06-17 04:26:00,
2013-06-17 00:31:00,71.3,65.2,29.98,South,180,0.0,4.0,81,0.00,,---,0.00,VWS V14.00,2013-06-17 04:31:00,
2013-06-17 00:36:00,71.2,65.1,29.98,South,180,0.0,4.0,81,0.00,,---,0.00,VWS V14.00,2013-06-17 04:36:00,
2013-06-17 00:41:00,71.0,65.2,29.98,South,180,0.0,0.0,82,0.00,,---,0.00,VWS V14.00,2013-06-17 04:41:00,
2013-06-17 00:46:00,70.9,65.1,29.99,South,180,0.0,1.0,82,0.00,,---,0.00,VWS V14.00,2013-06-17 04:46:00,
2013-06-17 00:51:00,70.8,65.4,29.99,South,180,0.0,1.0,83,0.00,,---,0.00,VWS V14.00,2013-06-17 04:51:00,
2013-06-17 00:56:00,70.8,65.4,29.99,South,180,0.0,1.0,83,0.00,,---,0.00,VWS V14.00,2013-06-17 04:56:00,
2013-06-17 01:01:00,70.6,65.2,29.99,South,178,0.0,3.0,83,0.00,,---,0.00,VWS V14.00,2013-06-17 05:01:00,
2013-06-17 01:06:00,70.6,65.2,29.99,South,172,0.0,3.0,83,0.00,,---,0.00,VWS V14.00,2013-06-17 05:06:00,
2013-06-17 01:11:00,70.5,65.1,29.98,South,172,0.0,1.0,83,0.00,,---,0.00,VWS V14.00,2013-06-17 05:11:00,
2013-06-17 01:16:00,70.4,65.3,29.99,South,172,0.0,5.0,84,0.00,,---,0.00,VWS V14.00,2013-06-17 05:16:00,
2013-06-17 01:21:00,70.4,65.3,29.98,South,172,0.0,5.0,84,0.00,,---,0.00,VWS V14.00,2013-06-17 05:21:00,
2013-06-17 01:26:00,70.3,65.2,29.99,South,172,0.0,5.0,84,0.00,,---,0.00,VWS V14.00,2013-06-17 05:26:00,
2013-06-17 01:31:00,70.2,65.1,29.99,South,172,0.0,5.0,84,0.00,,---,0.00,VWS V14.00,2013-06-17 05:31:00,
2013-06-17 01:36:00,70.2,65.5,29.99,SE,136,0.0,5.0,85,0.00,,---,0.00,VWS V14.00,2013-06-17 05:36:00,
2013-06-17 01:41:00,70.1,65.4,29.98,SSE,163,0.0,3.0,85,0.00,,---,0.00,VWS V14.00,2013-06-17 05:41:00,
2013-06-17 01:46:00,70.0,65.3,29.98,SSE,154,0.0,4.0,85,0.00,,---,0.00,VWS V14.00,2013-06-17 05:46:00,
2013-06-17 01:51:00,70.0,65.3,29.98,SSE,155,0.0,4.0,85,0.00,,---,0.00,VWS V14.00,2013-06-17 05:51:00,
2013-06-17 01:56:00,69.9,65.2,29.98,SSE,155,0.0,4.0,85,0.00,,---,0.00,VWS V14.00,2013-06-17 05:56:00,
2013-06-17 02:01:00,69.9,65.5,29.98,SSE,155,0.0,4.0,86,0.00,,---,0.00,VWS V14.00,2013-06-17 06:01:00,
2013-06-17 02:06:00,69.8,65.4,29.98,SSE,155,1.0,4.0,86,0.00,,---,0.00,VWS V14.00,2013-06-17 06:06:00,
2013-06-17 02:11:00,69.8,65.4,29.97,South,178,1.0,1.0,86,0.00,,---,0.00,VWS V14.00,2013-06-17 06:11:00,
2013-06-17 02:16:00,69.8,65.4,29.97,South,178,0.0,1.0,86,0.00,,---,0.00,VWS V14.00,2013-06-17 06:16:00,
2013-06-17 02:21:00,69.8,65.4,29.97,South,178,0.0,1.0,86,0.00,,---,0.00,VWS V14.00,2013-06-17 06:21:00,
2013-06-17 02:26:00,69.8,65.4,29.97,South,178,0.0,1.0,86,0.00,,---,0.00,VWS V14.00,2013-06-17 06:26:00,
2013-06-17 02:31:00,69.7,65.3,29.97,South,178,0.0,1.0,86,0.00,,---,0.00,VWS V14.00,2013-06-17 06:31:00,
2013-06-17 02:36:00,69.7,65.3,29.97,South,178,0.0,1.0,86,0.00,,---,0.00,VWS V14.00,2013-06-17 06:36:00,
2013-06-17 02:41:00,69.6,65.2,29.97,South,178,0.0,1.0,86,0.00,,---,0.00,VWS V14.00,2013-06-17 06:41:00,
2013-06-17 02:46:00,69.6,65.6,29.97,South,178,0.0,1.0,87,0.00,,---,0.00,VWS V14.00,2013-06-17 06:46:00,
2013-06-17 02:51:00,69.5,65.5,29.97,South,178,0.0,1.0,87,0.00,,---,0.00,VWS V14.00,2013-06-17 06:51:00,
2013-06-17 02:56:00,69.5,65.5,29.97,South,178,0.0,1.0,87,0.00,,---,0.00,VWS V14.00,2013-06-17 06:56:00,
2013-06-17 03:01:00,69.4,65.4,29.97,South,178,0.0,1.0,87,0.00,,---,0.00,VWS V14.00,2013-06-17 07:01:00,
2013-06-17 03:06:00,69.4,65.4,29.97,South,178,0.0,1.0,87,0.00,,---,0.00,VWS V14.00,2013-06-17 07:06:00,
2013-06-17 03:11:00,69.3,65.3,29.98,South,178,0.0,0.0,87,0.00,,---,0.00,VWS V14.00,2013-06-17 07:11:00,
2013-06-17 03:16:00,69.3,65.3,29.98,South,178,0.0,0.0,87,0.00,,---,0.00,VWS V14.00,2013-06-17 07:16:00,
2013-06-17 03:21:00,69.3,65.3,29.98,South,178,0.0,0.0,87,0.00,,---,0.00,VWS V14.00,2013-06-17 07:21:00,
2013-06-17 03:26:00,69.2,65.2,29.98,South,178,0.0,0.0,87,0.00,,---,0.00,VWS V14.00,2013-06-17 07:26:00,
2013-06-17 03:31:00,69.1,65.1,29.98,South,178,0.0,0.0,87,0.00,,---,0.00,VWS V14.00,2013-06-17 07:31:00,
2013-06-17 03:36:00,69.1,65.4,29.98,South,178,0.0,0.0,88,0.00,,---,0.00,VWS V14.00,2013-06-17 07:36:00,
2013-06-17 03:41:00,69.0,65.3,29.98,South,178,0.0,0.0,88,0.00,,---,0.00,VWS V14.00,2013-06-17 07:41:00,
2013-06-17 03:46:00,68.9,65.2,29.97,South,178,0.0,0.0,88,0.00,,---,0.00,VWS V14.00,2013-06-17 07:46:00,
2013-06-17 03:51:00,68.8,65.1,29.98,South,178,0.0,0.0,88,0.00,,---,0.00,VWS V14.00,2013-06-17 07:51:00,
2013-06-17 03:56:00,68.8,65.1,29.98,South,178,0.0,0.0,88,0.00,,---,0.00,VWS V14.00,2013-06-17 07:56:00,
2013-06-17 04:01:00,68.7,65.0,29.97,South,178,0.0,0.0,88,0.00,,---,0.00,VWS V14.00,2013-06-17 08:01:00,
2013-06-17 04:06:00,68.6,65.2,29.97,South,178,0.0,0.0,89,0.00,,---,0.00,VWS V14.00,2013-06-17 08:06:00,
2013-06-17 04:11:00,68.5,65.1,29.97,South,178,0.0,0.0,89,0.00,,---,0.00,VWS V14.00,2013-06-17 08:11:00,
2013-06-17 04:16:00,68.5,65.1,29.97,South,178,0.0,0.0,89,0.00,,---,0.00,VWS V14.00,2013-06-17 08:16:00,
2013-06-17 04:21:00,68.4,65.0,29.97,South,178,0.0,0.0,89,0.00,,---,0.00,VWS V14.00,2013-06-17 08:21:00,
2013-06-17 04:26:00,68.4,65.4,29.97,South,178,0.0,0.0,90,0.00,,---,0.00,VWS V14.00,2013-06-17 08:26:00,
2013-06-17 04:31:00,68.4,65.0,29.97,South,178,0.0,0.0,89,0.00,,---,0.00,VWS V14.00,2013-06-17 08:31:00,
2013-06-17 04:36:00,68.4,65.0,29.97,South,178,0.0,0.0,89,0.00,,---,0.00,VWS V14.00,2013-06-17 08:36:00,
2013-06-17 04:41:00,68.4,65.4,29.98,South,178,0.0,0.0,90,0.00,,---,0.00,VWS V14.00,2013-06-17 08:41:00,
2013-06-17 04:46:00,68.4,65.4,29.98,South,178,0.0,0.0,90,0.00,,---,0.00,VWS V14.00,2013-06-17 08:46:00,
2013-06-17 04:51:00,68.4,65.4,29.98,South,178,0.0,0.0,90,0.00,,---,0.00,VWS V14.00,2013-06-17 08:51:00,
2013-06-17 04:56:00,68.4,65.4,29.98,South,178,0.0,0.0,90,0.00,,---,0.00,VWS V14.00,2013-06-17 08:56:00,
2013-06-17 05:01:00,68.4,65.4,29.98,South,178,0.0,0.0,90,0.00,,---,0.00,VWS V14.00,2013-06-17 09:01:00,
2013-06-17 05:06:00,68.3,65.3,29.97,South,178,0.0,0.0,90,0.00,,---,0.00,VWS V14.00,2013-06-17 09:06:00,
2013-06-17 05:11:00,68.3,65.3,29.97,South,178,0.0,0.0,90,0.00,,---,0.00,VWS V14.00,2013-06-17 09:11:00,
2013-06-17 05:16:00,68.1,65.1,29.97,South,178,0.0,0.0,90,0.00,,---,0.00,VWS V14.00,2013-06-17 09:16:00,
2013-06-17 05:21:00,68.1,65.1,29.97,South,178,0.0,0.0,90,0.00,,---,0.00,VWS V14.00,2013-06-17 09:21:00,
2013-06-17 05:26:00,68.0,65.3,29.97,South,178,0.0,0.0,91,0.00,,---,0.00,VWS V14.00,2013-06-17 09:26:00,
2013-06-17 05:31:00,67.9,65.2,29.97,South,178,0.0,0.0,91,0.00,,---,0.00,VWS V14.00,2013-06-17 09:31:00,
2013-06-17 05:36:00,67.8,65.1,29.97,South,178,0.0,0.0,91,0.00,,---,0.00,VWS V14.00,2013-06-17 09:36:00,
2013-06-17 05:41:00,67.7,65.0,29.98,South,178,0.0,0.0,91,0.00,,---,0.00,VWS V14.00,2013-06-17 09:41:00,
2013-06-17 05:46:00,67.6,64.9,29.98,South,178,0.0,0.0,91,0.00,,---,0.00,VWS V14.00,2013-06-17 09:46:00,
2013-06-17 05:51:00,67.6,64.9,29.98,South,178,0.0,0.0,91,0.00,,---,0.00,VWS V14.00,2013-06-17 09:51:00,
2013-06-17 05:56:00,67.5,65.1,29.98,South,178,0.0,0.0,92,0.00,,---,0.00,VWS V14.00,2013-06-17 09:56:00,
2013-06-17 06:01:00,67.4,65.0,29.98,South,178,0.0,0.0,92,0.00,,---,0.00,VWS V14.00,2013-06-17 10:01:00,
2013-06-17 06:06:00,67.3,64.9,29.98,South,178,0.0,0.0,92,0.00,,---,0.00,VWS V14.00,2013-06-17 10:06:00,
2013-06-17 06:11:00,67.2,64.8,29.99,South,178,0.0,0.0,92,0.00,,---,0.00,VWS V14.00,2013-06-17 10:11:00,
2013-06-17 06:16:00,67.1,64.7,29.98,South,178,0.0,0.0,92,0.00,,---,0.00,VWS V14.00,2013-06-17 10:16:00,
2013-06-17 06:21:00,67.0,64.6,29.98,South,178,0.0,0.0,92,0.00,,---,0.00,VWS V14.00,2013-06-17 10:21:00,
2013-06-17 06:26:00,67.0,64.9,29.98,South,178,0.0,0.0,93,0.00,,---,0.00,VWS V14.00,2013-06-17 10:26:00,
2013-06-17 06:31:00,67.0,64.9,29.98,South,185,0.0,3.0,93,0.00,,---,0.00,VWS V14.00,2013-06-17 10:31:00,
2013-06-17 06:36:00,67.0,65.2,29.98,South,185,0.0,3.0,94,0.00,,---,0.00,VWS V14.00,2013-06-17 10:36:00,
2013-06-17 06:41:00,67.0,65.2,29.99,South,185,0.0,0.0,94,0.00,,---,0.00,VWS V14.00,2013-06-17 10:41:00,
2013-06-17 06:46:00,67.0,65.2,29.99,South,185,0.0,0.0,94,0.00,,---,0.00,VWS V14.00,2013-06-17 10:46:00,
2013-06-17 06:51:00,66.9,65.1,29.99,South,185,0.0,0.0,94,0.00,,---,0.00,VWS V14.00,2013-06-17 10:51:00,
2013-06-17 06:56:00,66.9,65.1,29.99,South,185,0.0,0.0,94,0.00,,---,0.00,VWS V14.00,2013-06-17 10:56:00,
2013-06-17 07:01:00,66.8,65.0,29.99,South,184,0.0,0.0,94,0.00,,---,0.00,VWS V14.00,2013-06-17 11:01:00,
2013-06-17 07:06:00,66.8,65.3,29.99,SSE,164,0.0,1.0,95,0.00,,---,0.00,VWS V14.00,2013-06-17 11:06:00,
2013-06-17 07:11:00,66.8,65.3,29.99,SSE,164,0.0,0.0,95,0.00,,---,0.00,VWS V14.00,2013-06-17 11:11:00,
2013-06-17 07:16:00,66.8,65.3,29.99,SSE,164,0.0,0.0,95,0.00,,---,0.00,VWS V14.00,2013-06-17 11:16:00,
2013-06-17 07:21:00,66.7,65.2,29.99,SSE,164,0.0,0.0,95,0.00,,---,0.00,VWS V14.00,2013-06-17 11:21:00,
2013-06-17 07:26:00,66.7,65.2,29.99,SSE,164,0.0,0.0,95,0.00,,---,0.00,VWS V14.00,2013-06-17 11:26:00,
2013-06-17 07:31:00,66.7,65.2,29.99,SSE,164,0.0,0.0,95,0.00,,---,0.00,VWS V14.00,2013-06-17 11:31:00,
2013-06-17 07:36:00,66.7,65.2,29.99,SSE,164,0.0,0.0,95,0.00,,---,0.00,VWS V14.00,2013-06-17 11:36:00,
2013-06-17 07:41:00,66.6,65.1,29.99,SSE,164,0.0,0.0,95,0.00,,---,0.00,VWS V14.00,2013-06-17 11:41:00,
2013-06-17 07:46:00,66.7,65.2,29.99,South,190,0.0,0.0,95,0.00,,---,0.00,VWS V14.00,2013-06-17 11:46:00,
2013-06-17 07:51:00,66.7,65.2,29.99,East,96,0.0,0.0,95,0.00,,---,0.00,VWS V14.00,2013-06-17 11:51:00,
2013-06-17 07:56:00,66.8,65.3,30.00,ESE,111,0.0,0.0,95,0.00,,---,0.00,VWS V14.00,2013-06-17 11:56:00,
2013-06-17 08:01:00,66.8,65.6,29.99,ESE,111,0.0,0.0,96,0.00,,---,0.00,VWS V14.00,2013-06-17 12:01:00,
2013-06-17 08:06:00,67.0,65.8,29.99,ESE,110,0.0,0.0,96,0.00,,---,0.00,VWS V14.00,2013-06-17 12:06:00,
2013-06-17 08:11:00,67.1,65.9,30.00,ESE,110,0.0,0.0,96,0.00,,---,0.00,VWS V14.00,2013-06-17 12:11:00,
2013-06-17 08:16:00,67.4,66.2,30.00,ESE,110,0.0,0.0,96,0.00,,---,0.00,VWS V14.00,2013-06-17 12:16:00,
2013-06-17 08:21:00,67.5,66.3,29.99,ESE,111,0.0,0.0,96,0.00,,---,0.00,VWS V14.00,2013-06-17 12:21:00,
2013-06-17 08:26:00,67.8,66.6,30.00,ESE,111,0.0,0.0,96,0.00,,---,0.00,VWS V14.00,2013-06-17 12:26:00,
2013-06-17 08:31:00,68.1,66.9,30.00,ESE,111,0.0,1.0,96,0.00,,---,0.00,VWS V14.00,2013-06-17 12:31:00,
2013-06-17 08:36:00,68.2,66.7,30.00,NE,46,0.0,1.0,95,0.00,,---,0.00,VWS V14.00,2013-06-17 12:36:00,
2013-06-17 08:41:00,68.3,67.1,30.00,NE,52,0.0,1.0,96,0.00,,---,0.00,VWS V14.00,2013-06-17 12:41:00,
2013-06-17 08:46:00,68.5,67.0,29.99,SE,143,0.0,1.0,95,0.00,,---,0.00,VWS V14.00,2013-06-17 12:46:00,
2013-06-17 08:51:00,68.5,66.7,29.99,SE,142,0.0,1.0,94,0.00,,---,0.00,VWS V14.00,2013-06-17 12:51:00,
2013-06-17 08:56:00,68.7,67.2,29.99,SE,142,0.0,1.0,95,0.00,,---,0.00,VWS V14.00,2013-06-17 12:56:00,
2013-06-17 09:01:00,69.0,67.5,29.99,SE,142,0.0,1.0,95,0.00,,---,0.00,VWS V14.00,2013-06-17 13:01:00,
2013-06-17 09:06:00,69.0,67.2,29.99,East,101,0.0,1.0,94,0.00,,---,0.00,VWS V14.00,2013-06-17 13:06:00,
2013-06-17 09:11:00,69.1,67.3,30.00,East,94,0.0,1.0,94,0.00,,---,0.00,VWS V14.00,2013-06-17 13:11:00,
2013-06-17 09:16:00,69.2,67.4,30.00,ESE,119,0.0,3.0,94,0.00,,---,0.00,VWS V14.00,2013-06-17 13:16:00,
2013-06-17 09:21:00,69.4,67.6,30.00,ESE,119,0.0,3.0,94,0.00,,---,0.00,VWS V14.00,2013-06-17 13:21:00,
2013-06-17 09:26:00,69.5,67.7,30.00,ESE,121,1.0,3.0,94,0.00,,---,0.00,VWS V14.00,2013-06-17 13:26:00,
2013-06-17 09:31:00,69.5,67.1,30.00,ESE,123,0.0,3.0,92,0.00,,---,0.00,VWS V14.00,2013-06-17 13:31:00,
2013-06-17 09:36:00,69.5,66.8,30.00,NW,322,0.0,6.0,91,0.00,,---,0.00,VWS V14.00,2013-06-17 13:36:00,
2013-06-17 09:41:00,69.9,67.2,30.00,SE,134,0.0,1.0,91,0.00,,---,0.00,VWS V14.00,2013-06-17 13:41:00,
2013-06-17 09:46:00,70.3,66.9,30.00,NNW,340,2.0,3.0,89,0.00,,---,0.00,VWS V14.00,2013-06-17 13:46:00,
2013-06-17 09:51:00,70.6,66.6,30.00,South,189,0.0,3.0,87,0.00,,---,0.00,VWS V14.00,2013-06-17 13:51:00,
2013-06-17 09:56:00,71.2,67.8,30.00,South,189,0.0,3.0,89,0.00,,---,0.00,VWS V14.00,2013-06-17 13:56:00,
2013-06-17 10:01:00,71.4,67.3,30.00,South,189,0.0,3.0,87,0.00,,---,0.00,VWS V14.00,2013-06-17 14:01:00,
2013-06-17 10:06:00,71.6,67.9,29.99,East,88,0.0,3.0,88,0.00,,---,0.00,VWS V14.00,2013-06-17 14:06:00,
2013-06-17 10:11:00,71.6,67.9,29.99,NNW,345,0.0,5.0,88,0.00,,---,0.00,VWS V14.00,2013-06-17 14:11:00,
2013-06-17 10:16:00,71.3,67.6,29.99,East,83,0.0,5.0,88,0.00,,---,0.00,VWS V14.00,2013-06-17 14:16:00,
2013-06-17 10:21:00,71.1,67.7,29.99,East,86,0.0,5.0,89,0.00,,---,0.00,VWS V14.00,2013-06-17 14:21:00,
2013-06-17 10:26:00,71.0,67.6,29.99,ENE,71,0.0,5.0,89,0.00,,---,0.00,VWS V14.00,2013-06-17 14:26:00,
2013-06-17 10:31:00,71.0,67.9,29.99,ENE,72,0.0,5.0,90,0.00,,---,0.00,VWS V14.00,2013-06-17 14:31:00,
2013-06-17 10:36:00,71.1,68.3,29.99,ENE,72,0.0,5.0,91,0.00,,---,0.00,VWS V14.00,2013-06-17 14:36:00,
2013-06-17 10:41:00,71.2,68.1,29.99,ENE,77,0.0,3.0,90,0.00,,---,0.00,VWS V14.00,2013-06-17 14:41:00,
2013-06-17 10:46:00,71.3,68.2,29.99,ENE,76,0.0,3.0,90,0.00,,---,0.00,VWS V14.00,2013-06-17 14:46:00,
2013-06-17 10:51:00,71.5,68.1,29.99,East,84,0.0,3.0,89,0.00,,---,0.00,VWS V14.00,2013-06-17 14:51:00,
2013-06-17 10:56:00,72.0,68.9,29.99,NE,55,0.0,4.0,90,0.00,,---,0.00,VWS V14.00,2013-06-17 14:56:00,
2013-06-17 11:00:00,72.4,69.3,29.99,NE,55,0.0,4.0,90,0.00,,---,0.00,VWS V14.00,2013-06-17 15:00:00,
2013-06-17 11:05:00,72.3,68.6,29.99,ENE,60,0.0,4.0,88,0.01,,---,0.01,VWS V14.00,2013-06-17 15:05:00,
2013-06-17 11:10:00,72.3,68.6,29.99,North,11,0.0,1.0,88,0.01,,---,0.01,VWS V14.00,2013-06-17 15:10:00,
2013-06-17 11:15:00,72.2,68.8,29.99,NNE,15,0.0,2.0,89,0.01,,---,0.01,VWS V14.00,2013-06-17 15:15:00,
2013-06-17 11:20:00,72.3,69.2,29.99,NNE,15,0.0,2.0,90,0.01,,---,0.01,VWS V14.00,2013-06-17 15:20:00,
2013-06-17 11:25:00,72.4,69.3,29.99,ENE,78,0.0,2.0,90,0.01,,---,0.01,VWS V14.00,2013-06-17 15:25:00,
2013-06-17 11:30:00,72.6,69.2,29.99,SSE,153,0.0,2.0,89,0.01,,---,0.01,VWS V14.00,2013-06-17 15:30:00,
2013-06-17 11:35:00,72.3,68.6,29.99,NW,310,0.0,4.0,88,0.01,,---,0.01,VWS V14.00,2013-06-17 15:35:00,
2013-06-17 11:40:00,71.9,67.8,29.99,NNW,327,0.0,1.0,87,0.01,,---,0.01,VWS V14.00,2013-06-17 15:40:00,
2013-06-17 11:45:00,71.5,67.8,29.99,SW,230,0.0,3.0,88,0.01,,---,0.01,VWS V14.00,2013-06-17 15:45:00,
2013-06-17 11:50:00,71.4,67.7,30.00,SW,230,0.0,3.0,88,0.01,,---,0.01,VWS V14.00,2013-06-17 15:50:00,
2013-06-17 11:55:00,71.3,67.6,30.00,East,86,3.0,3.0,88,0.01,,---,0.01,VWS V14.00,2013-06-17 15:55:00,
2013-06-17 12:00:00,70.9,66.8,30.00,WNW,284,0.0,3.0,87,0.01,,---,0.01,VWS V14.00,2013-06-17 16:00:00,
2013-06-17 12:05:00,70.5,66.1,30.00,West,260,0.0,3.0,86,0.01,,---,0.01,VWS V14.00,2013-06-17 16:05:00,
2013-06-17 12:10:00,70.1,65.7,30.01,West,260,0.0,2.0,86,0.00,,---,0.01,VWS V14.00,2013-06-17 16:10:00,
2013-06-17 12:15:00,69.9,65.9,30.01,West,260,0.0,2.0,87,0.00,,---,0.01,VWS V14.00,2013-06-17 16:15:00,
2013-06-17 12:20:00,69.8,66.1,30.02,West,260,0.0,2.0,88,0.00,,---,0.01,VWS V14.00,2013-06-17 16:20:00,
2013-06-17 12:25:00,69.6,65.9,30.02,West,260,0.0,2.0,88,0.00,,---,0.01,VWS V14.00,2013-06-17 16:25:00,
2013-06-17 12:30:00,69.4,66.0,30.02,West,260,0.0,2.0,89,0.00,,---,0.01,VWS V14.00,2013-06-17 16:30:00,
2013-06-17 12:35:00,69.2,66.2,30.02,West,260,0.0,2.0,90,0.02,,---,0.03,VWS V14.00,2013-06-17 16:35:00,
2013-06-17 12:40:00,68.9,65.8,30.02,West,260,0.0,1.0,90,0.03,,---,0.04,VWS V14.00,2013-06-17 16:40:00,
2013-06-17 12:45:00,68.5,65.8,30.02,NNW,348,0.0,4.0,91,0.08,,---,0.09,VWS V14.00,2013-06-17 16:45:00,
2013-06-17 12:50:00,68.3,65.9,30.03,ENE,57,0.0,4.0,92,0.10,,---,0.11,VWS V14.00,2013-06-17 16:50:00,
2013-06-17 12:55:00,68.2,66.1,30.02,SE,130,0.0,4.0,93,0.10,,---,0.11,VWS V14.00,2013-06-17 16:55:00,
2013-06-17 13:00:00,68.1,66.0,30.03,SE,142,0.0,4.0,93,0.10,,---,0.11,VWS V14.00,2013-06-17 17:00:00,
2013-06-17 13:05:00,68.1,66.3,30.03,SE,145,0.0,4.0,94,0.10,,---,0.11,VWS V14.00,2013-06-17 17:05:00,
2013-06-17 13:10:00,68.1,66.3,30.03,NE,45,0.0,2.0,94,0.10,,---,0.11,VWS V14.00,2013-06-17 17:10:00,
2013-06-17 13:15:00,68.3,66.8,30.03,NE,47,0.0,2.0,95,0.10,,---,0.11,VWS V14.00,2013-06-17 17:15:00,
2013-06-17 13:20:00,68.3,66.8,30.03,NE,47,0.0,2.0,95,0.10,,---,0.11,VWS V14.00,2013-06-17 17:20:00,
2013-06-17 13:25:00,68.2,66.7,30.03,NE,46,0.0,2.0,95,0.10,,---,0.11,VWS V14.00,2013-06-17 17:25:00,
2013-06-17 13:30:00,68.2,66.7,30.03,North,10,0.0,2.0,95,0.10,,---,0.11,VWS V14.00,2013-06-17 17:30:00,
2013-06-17 13:35:00,68.3,66.8,30.03,WNW,298,0.0,2.0,95,0.10,,---,0.11,VWS V14.00,2013-06-17 17:35:00,
2013-06-17 13:40:00,68.4,66.9,30.02,WNW,298,0.0,0.0,95,0.08,,---,0.11,VWS V14.00,2013-06-17 17:40:00,
2013-06-17 13:45:00,68.5,67.0,30.02,WNW,298,0.0,0.0,95,0.08,,---,0.11,VWS V14.00,2013-06-17 17:45:00,
2013-06-17 13:50:00,68.7,67.2,30.02,WNW,298,0.0,0.0,95,0.08,,---,0.11,VWS V14.00,2013-06-17 17:50:00,
2013-06-17 13:55:00,69.0,67.5,30.02,WNW,298,0.0,0.0,95,0.08,,---,0.11,VWS V14.00,2013-06-17 17:55:00,
2013-06-17 14:00:00,69.2,67.7,30.01,WNW,299,0.0,1.0,95,0.08,,---,0.11,VWS V14.00,2013-06-17 18:00:00,
2013-06-17 14:05:00,69.7,68.2,30.00,WNW,299,0.0,1.0,95,0.08,,---,0.11,VWS V14.00,2013-06-17 18:05:00,
2013-06-17 14:10:00,70.2,68.7,30.00,WNW,299,0.0,1.0,95,0.00,,---,0.11,VWS V14.00,2013-06-17 18:10:00,
2013-06-17 14:15:00,71.3,69.8,29.99,ENE,75,0.0,2.0,95,0.00,,---,0.11,VWS V14.00,2013-06-17 18:15:00,
2013-06-17 14:20:00,72.0,69.6,29.99,East,88,0.0,3.0,92,0.00,,---,0.11,VWS V14.00,2013-06-17 18:20:00,
2013-06-17 14:25:00,72.7,68.9,29.98,North,355,0.0,4.0,88,0.00,,---,0.11,VWS V14.00,2013-06-17 18:25:00,
2013-06-17 14:30:00,73.3,69.2,29.98,SE,139,1.0,4.0,87,0.00,,---,0.11,VWS V14.00,2013-06-17 18:30:00,
2013-06-17 14:35:00,74.0,69.2,29.98,SE,140,1.0,4.0,85,0.00,,---,0.11,VWS V14.00,2013-06-17 18:35:00,
2013-06-17 14:40:00,74.4,68.6,29.97,SE,136,0.0,1.0,82,0.00,,---,0.11,VWS V14.00,2013-06-17 18:40:00,
2013-06-17 14:45:00,74.7,68.8,29.96,SE,128,1.0,1.0,82,0.00,,---,0.11,VWS V14.00,2013-06-17 18:45:00,
2013-06-17 14:50:00,74.8,68.9,29.96,South,184,0.0,1.0,82,0.00,,---,0.11,VWS V14.00,2013-06-17 18:50:00,
2013-06-17 14:55:00,74.9,69.7,29.96,South,182,0.0,1.0,84,0.00,,---,0.11,VWS V14.00,2013-06-17 18:55:00,
2013-06-17 15:00:00,75.3,69.4,29.95,West,259,1.0,4.0,82,0.00,,---,0.11,VWS V14.00,2013-06-17 19:00:00,
2013-06-17 15:05:00,75.2,69.0,29.95,NNW,343,0.0,6.0,81,0.00,,---,0.11,VWS V14.00,2013-06-17 19:05:00,
2013-06-17 15:10:00,75.2,69.3,29.95,NW,306,0.0,2.0,82,0.00,,---,0.11,VWS V14.00,2013-06-17 19:10:00,
2013-06-17 15:15:00,74.8,68.6,29.94,SSW,200,0.0,4.0,81,0.00,,---,0.11,VWS V14.00,2013-06-17 19:15:00,
2013-06-17 15:20:00,74.5,69.0,29.94,SE,140,0.0,4.0,83,0.00,,---,0.11,VWS V14.00,2013-06-17 19:20:00,
2013-06-17 15:25:00,74.4,69.3,29.94,SE,140,0.0,4.0,84,0.00,,---,0.11,VWS V14.00,2013-06-17 19:25:00,
2013-06-17 15:30:00,74.4,69.6,29.94,SE,145,0.0,4.0,85,0.00,,---,0.11,VWS V14.00,2013-06-17 19:30:00,
2013-06-17 15:35:00,74.4,69.3,29.93,SE,145,0.0,4.0,84,0.00,,---,0.11,VWS V14.00,2013-06-17 19:35:00,
2013-06-17 15:40:00,74.6,69.4,29.93,SE,144,0.0,1.0,84,0.00,,---,0.11,VWS V14.00,2013-06-17 19:40:00,
2013-06-17 15:45:00,74.9,69.7,29.93,SE,143,0.0,1.0,84,0.00,,---,0.11,VWS V14.00,2013-06-17 19:45:00,
2013-06-17 15:50:00,75.5,70.0,29.93,SE,143,0.0,1.0,83,0.00,,---,0.11,VWS V14.00,2013-06-17 19:50:00,
2013-06-17 15:55:00,75.9,69.7,29.93,SE,143,0.0,1.0,81,0.00,,---,0.11,VWS V14.00,2013-06-17 19:55:00,
2013-06-17 16:00:00,76.2,70.3,29.93,SE,143,0.0,1.0,82,0.00,,---,0.11,VWS V14.00,2013-06-17 20:00:00,
2013-06-17 16:05:00,76.6,71.1,29.93,NNW,336,0.0,3.0,83,0.00,,---,0.11,VWS V14.00,2013-06-17 20:05:00,
2013-06-17 16:10:00,76.8,70.2,29.93,NNW,337,0.0,2.0,80,0.00,,---,0.11,VWS V14.00,2013-06-17 20:10:00,
2013-06-17 16:15:00,77.1,70.8,29.92,NW,309,0.0,2.0,81,0.00,,---,0.11,VWS V14.00,2013-06-17 20:15:00,
2013-06-17 16:20:00,77.3,71.0,29.92,SE,136,1.0,3.0,81,0.00,,---,0.11,VWS V14.00,2013-06-17 20:20:00,
2013-06-17 16:25:00,77.3,70.7,29.92,SSW,196,0.0,3.0,80,0.00,,---,0.11,VWS V14.00,2013-06-17 20:25:00,
2013-06-17 16:30:00,77.3,69.9,29.92,SSW,207,0.0,3.0,78,0.00,,---,0.11,VWS V14.00,2013-06-17 20:30:00,
2013-06-17 16:35:00,77.3,70.7,29.92,SSW,206,0.0,3.0,80,0.00,,---,0.11,VWS V14.00,2013-06-17 20:35:00,
2013-06-17 16:40:00,77.5,70.5,29.91,West,272,0.0,4.0,79,0.00,,---,0.11,VWS V14.00,2013-06-17 20:40:00,
2013-06-17 16:45:00,77.7,71.4,29.91,West,272,0.0,4.0,81,0.00,,---,0.11,VWS V14.00,2013-06-17 20:45:00,
2013-06-17 16:50:00,77.7,70.7,29.91,WNW,283,0.0,4.0,79,0.00,,---,0.11,VWS V14.00,2013-06-17 20:50:00,
2013-06-17 16:55:00,77.9,71.2,29.91,ESE,103,2.0,4.0,80,0.00,,---,0.11,VWS V14.00,2013-06-17 20:55:00,
2013-06-17 17:00:00,77.6,69.8,29.91,SSE,153,3.0,4.0,77,0.00,,---,0.11,VWS V14.00,2013-06-17 21:00:00,
2013-06-17 17:05:00,77.2,69.4,29.91,South,187,0.0,5.0,77,0.00,,---,0.11,VWS V14.00,2013-06-17 21:05:00,
2013-06-17 17:10:00,76.6,69.6,29.91,South,186,0.0,1.0,79,0.00,,---,0.11,VWS V14.00,2013-06-17 21:10:00,
2013-06-17 17:15:00,76.4,69.8,29.92,SSE,150,0.0,5.0,80,0.00,,---,0.11,VWS V14.00,2013-06-17 21:15:00,
2013-06-17 17:20:00,76.3,70.1,29.91,SE,137,0.0,5.0,81,0.00,,---,0.11,VWS V14.00,2013-06-17 21:20:00,
2013-06-17 17:25:00,76.2,69.6,29.92,ESE,121,0.0,5.0,80,0.00,,---,0.11,VWS V14.00,2013-06-17 21:25:00,
2013-06-17 17:30:00,76.1,70.2,29.92,ESE,121,0.0,5.0,82,0.00,,---,0.11,VWS V14.00,2013-06-17 21:30:00,
2013-06-17 17:35:00,76.0,70.1,29.92,ESE,121,0.0,5.0,82,0.00,,---,0.11,VWS V14.00,2013-06-17 21:35:00,
2013-06-17 17:40:00,75.9,70.4,29.92,ESE,121,0.0,0.0,83,0.00,,---,0.11,VWS V14.00,2013-06-17 21:40:00,
2013-06-17 17:45:00,75.7,70.2,29.93,ESE,121,0.0,0.0,83,0.00,,---,0.11,VWS V14.00,2013-06-17 21:45:00,
2013-06-17 17:50:00,75.6,70.4,29.93,ESE,121,0.0,0.0,84,0.00,,---,0.11,VWS V14.00,2013-06-17 21:50:00,
2013-06-17 17:55:00,75.5,70.7,29.93,ESE,121,0.0,0.0,85,0.00,,---,0.11,VWS V14.00,2013-06-17 21:55:00,
2013-06-17 18:00:00,75.3,70.1,29.92,ESE,121,0.0,0.0,84,0.00,,---,0.11,VWS V14.00,2013-06-17 22:00:00,
2013-06-17 18:05:00,75.2,70.0,29.92,ESE,121,0.0,0.0,84,0.00,,---,0.11,VWS V14.00,2013-06-17 22:05:00,
2013-06-17 18:10:00,75.1,69.9,29.92,ESE,121,0.0,0.0,84,0.00,,---,0.11,VWS V14.00,2013-06-17 22:10:00,
2013-06-17 18:15:00,75.0,69.5,29.92,ESE,121,0.0,0.0,83,0.00,,---,0.11,VWS V14.00,2013-06-17 22:15:00,
2013-06-17 18:20:00,75.1,70.3,29.92,ESE,121,0.0,0.0,85,0.00,,---,0.11,VWS V14.00,2013-06-17 22:20:00,
2013-06-17 18:25:00,74.9,69.4,29.91,ESE,121,0.0,1.0,83,0.00,,---,0.11,VWS V14.00,2013-06-17 22:25:00,
2013-06-17 18:30:00,74.9,69.4,29.91,ESE,121,0.0,1.0,83,0.00,,---,0.11,VWS V14.00,2013-06-17 22:30:00,
2013-06-17 18:35:00,74.7,69.2,29.91,ESE,121,0.0,1.0,83,0.00,,---,0.11,VWS V14.00,2013-06-17 22:35:00,
2013-06-17 18:40:00,74.7,69.6,29.91,ESE,121,0.0,0.0,84,0.00,,---,0.11,VWS V14.00,2013-06-17 22:40:00,
2013-06-17 18:45:00,74.4,69.3,29.92,ESE,121,0.0,1.0,84,0.00,,---,0.11,VWS V14.00,2013-06-17 22:45:00,
2013-06-17 18:50:00,74.1,69.3,29.92,ESE,121,0.0,1.0,85,0.00,,---,0.11,VWS V14.00,2013-06-17 22:50:00,
2013-06-17 18:55:00,73.8,69.0,29.92,ESE,121,0.0,1.0,85,0.00,,---,0.11,VWS V14.00,2013-06-17 22:55:00,
2013-06-17 19:00:00,73.5,69.1,29.92,ESE,121,0.0,1.0,86,0.00,,---,0.11,VWS V14.00,2013-06-17 23:00:00,
2013-06-17 19:05:00,73.2,68.8,29.92,ESE,121,0.0,1.0,86,0.00,,---,0.11,VWS V14.00,2013-06-17 23:05:00,
2013-06-17 19:10:00,73.0,68.9,29.92,ESE,121,0.0,0.0,87,0.00,,---,0.11,VWS V14.00,2013-06-17 23:10:00,
2013-06-17 19:15:00,72.8,68.7,29.92,ESE,121,0.0,0.0,87,0.00,,---,0.11,VWS V14.00,2013-06-17 23:15:00,
2013-06-17 19:20:00,72.7,68.9,29.92,ESE,121,0.0,0.0,88,0.00,,---,0.11,VWS V14.00,2013-06-17 23:20:00,
2013-06-17 19:25:00,72.6,69.2,29.92,ESE,121,0.0,0.0,89,0.01,,---,0.12,VWS V14.00,2013-06-17 23:25:00,
2013-06-17 19:30:00,72.4,69.0,29.93,ESE,109,0.0,1.0,89,0.01,,---,0.12,VWS V14.00,2013-06-17 23:30:00,
2013-06-17 19:35:00,72.2,68.8,29.93,ESE,109,0.0,1.0,89,0.01,,---,0.12,VWS V14.00,2013-06-17 23:35:00,
2013-06-17 19:40:00,72.0,68.9,29.93,ESE,108,0.0,0.0,90,0.01,,---,0.12,VWS V14.00,2013-06-17 23:40:00,
2013-06-17 19:45:00,71.8,68.7,29.93,ESE,108,0.0,1.0,90,0.01,,---,0.12,VWS V14.00,2013-06-17 23:45:00,
2013-06-17 19:50:00,71.7,68.9,29.93,ESE,108,0.0,1.0,91,0.01,,---,0.12,VWS V14.00,2013-06-17 23:50:00,
2013-06-17 19:55:00,71.5,68.7,29.93,ESE,108,0.0,1.0,91,0.01,,---,0.12,VWS V14.00,2013-06-17 23:55:00,
2013-06-17 20:00:00,71.3,68.5,29.93,ESE,107,0.0,1.0,91,0.01,,---,0.12,VWS V14.00,2013-06-18 00:00:00,
2013-06-17 20:05:00,71.2,68.4,29.93,ESE,107,0.0,1.0,91,0.01,,---,0.12,VWS V14.00,2013-06-18 00:05:00,
2013-06-17 20:10:00,71.1,68.3,29.92,ESE,107,0.0,1.0,91,0.04,,---,0.15,VWS V14.00,2013-06-18 00:10:00,
2013-06-17 20:15:00,71.0,68.6,29.92,ESE,108,0.0,1.0,92,0.06,,---,0.17,VWS V14.00,2013-06-18 00:15:00,
2013-06-17 20:20:00,70.8,68.4,29.92,West,278,0.0,4.0,92,0.06,,---,0.17,VWS V14.00,2013-06-18 00:20:00,
2013-06-17 20:25:00,70.6,68.5,29.92,WSW,253,0.0,4.0,93,0.06,,---,0.17,VWS V14.00,2013-06-18 00:25:00,
2013-06-17 20:30:00,70.4,68.3,29.93,South,178,0.0,4.0,93,0.06,,---,0.17,VWS V14.00,2013-06-18 00:30:00,
2013-06-17 20:35:00,70.3,68.2,29.93,South,178,0.0,4.0,93,0.06,,---,0.17,VWS V14.00,2013-06-18 00:35:00,
2013-06-17 20:40:00,70.1,68.3,29.93,West,276,0.0,3.0,94,0.05,,---,0.17,VWS V14.00,2013-06-18 00:40:00,
2013-06-17 20:45:00,69.9,68.1,29.93,West,279,0.0,3.0,94,0.05,,---,0.17,VWS V14.00,2013-06-18 00:45:00,
2013-06-17 20:50:00,69.6,67.8,29.93,West,279,0.0,3.0,94,0.05,,---,0.17,VWS V14.00,2013-06-18 00:50:00,
2013-06-17 20:55:00,69.4,67.6,29.93,West,279,0.0,3.0,94,0.05,,---,0.17,VWS V14.00,2013-06-18 00:55:00,
2013-06-17 21:00:00,69.3,67.5,29.93,West,279,0.0,3.0,94,0.05,,---,0.17,VWS V14.00,2013-06-18 01:00:00,
2013-06-17 21:05:00,69.1,67.6,29.93,West,279,0.0,3.0,95,0.05,,---,0.17,VWS V14.00,2013-06-18 01:05:00,
2013-06-17 21:10:00,69.0,67.5,29.93,West,279,0.0,0.0,95,0.04,,---,0.17,VWS V14.00,2013-06-18 01:10:00,
2013-06-17 21:15:00,68.9,67.4,29.93,West,279,0.0,0.0,95,0.04,,---,0.17,VWS V14.00,2013-06-18 01:15:00,
2013-06-17 21:20:00,68.7,67.2,29.93,West,279,0.0,0.0,95,0.04,,---,0.17,VWS V14.00,2013-06-18 01:20:00,
2013-06-17 21:25:00,68.6,67.1,29.93,West,279,0.0,0.0,95,0.04,,---,0.17,VWS V14.00,2013-06-18 01:25:00,
2013-06-17 21:30:00,68.5,67.0,29.93,West,279,0.0,0.0,95,0.04,,---,0.17,VWS V14.00,2013-06-18 01:30:00,
2013-06-17 21:35:00,68.5,67.0,29.93,WNW,283,0.0,2.0,95,0.04,,---,0.17,VWS V14.00,2013-06-18 01:35:00,
2013-06-17 21:40:00,68.4,67.2,29.93,WNW,286,0.0,1.0,96,0.00,,---,0.17,VWS V14.00,2013-06-18 01:40:00,
2013-06-17 21:45:00,68.3,67.1,29.93,WNW,286,0.0,1.0,96,0.00,,---,0.17,VWS V14.00,2013-06-18 01:45:00,
2013-06-17 21:50:00,68.3,67.1,29.93,WNW,286,0.0,1.0,96,0.00,,---,0.17,VWS V14.00,2013-06-18 01:50:00,
2013-06-17 21:55:00,68.3,67.1,29.93,WNW,286,0.0,1.0,96,0.00,,---,0.17,VWS V14.00,2013-06-18 01:55:00,
2013-06-17 22:00:00,68.2,67.0,29.93,WNW,286,0.0,1.0,96,0.01,,---,0.18,VWS V14.00,2013-06-18 02:00:00,
2013-06-17 22:05:00,68.1,66.9,29.93,WNW,286,0.0,1.0,96,0.01,,---,0.18,VWS V14.00,2013-06-18 02:05:00,
2013-06-17 22:10:00,68.1,66.9,29.93,WNW,286,0.0,0.0,96,0.01,,---,0.18,VWS V14.00,2013-06-18 02:10:00,
2013-06-17 22:15:00,68.1,66.9,29.93,WNW,286,0.0,0.0,96,0.01,,---,0.18,VWS V14.00,2013-06-18 02:15:00,
2013-06-17 22:20:00,68.0,66.8,29.93,WNW,286,0.0,0.0,96,0.01,,---,0.18,VWS V14.00,2013-06-18 02:20:00,
2013-06-17 22:25:00,67.9,66.7,29.93,WNW,286,0.0,0.0,96,0.01,,---,0.18,VWS V14.00,2013-06-18 02:25:00,
2013-06-17 22:30:00,67.9,66.7,29.93,WNW,286,0.0,0.0,96,0.01,,---,0.18,VWS V14.00,2013-06-18 02:30:00,
2013-06-17 22:35:00,67.8,66.6,29.93,WNW,286,0.0,0.0,96,0.01,,---,0.18,VWS V14.00,2013-06-18 02:35:00,
2013-06-17 22:40:00,67.7,66.5,29.93,WNW,286,0.0,0.0,96,0.01,,---,0.18,VWS V14.00,2013-06-18 02:40:00,
2013-06-17 22:45:00,67.7,66.5,29.93,WNW,286,0.0,0.0,96,0.01,,---,0.18,VWS V14.00,2013-06-18 02:45:00,
2013-06-17 22:50:00,67.7,66.5,29.94,WNW,286,0.0,0.0,96,0.01,,---,0.18,VWS V14.00,2013-06-18 02:50:00,
2013-06-17 22:55:00,67.6,66.4,29.94,WNW,286,0.0,1.0,96,0.01,,---,0.18,VWS V14.00,2013-06-18 02:55:00,
2013-06-17 23:00:00,67.6,66.4,29.94,WNW,286,0.0,1.0,96,0.01,,---,0.18,VWS V14.00,2013-06-18 03:00:00,
2013-06-17 23:05:00,67.5,66.3,29.94,WNW,287,0.0,1.0,96,0.01,,---,0.18,VWS V14.00,2013-06-18 03:05:00,
2013-06-17 23:10:00,67.4,66.2,29.94,WNW,287,0.0,0.0,96,0.00,,---,0.18,VWS V14.00,2013-06-18 03:10:00,
2013-06-17 23:15:00,67.3,66.1,29.94,WNW,287,0.0,1.0,96,0.00,,---,0.18,VWS V14.00,2013-06-18 03:15:00,
2013-06-17 23:20:00,67.2,66.0,29.94,WNW,287,0.0,1.0,96,0.00,,---,0.18,VWS V14.00,2013-06-18 03:20:00,
2013-06-17 23:25:00,67.1,66.2,29.94,WNW,287,0.0,1.0,97,0.00,,---,0.18,VWS V14.00,2013-06-18 03:25:00,
2013-06-17 23:30:00,67.0,66.1,29.94,WNW,287,0.0,1.0,97,0.00,,---,0.18,VWS V14.00,2013-06-18 03:30:00,
2013-06-17 23:35:00,67.0,65.8,29.94,WNW,287,0.0,1.0,96,0.00,,---,0.18,VWS V14.00,2013-06-18 03:35:00,
2013-06-17 23:40:00,66.9,65.7,29.94,WNW,287,0.0,1.0,96,0.00,,---,0.18,VWS V14.00,2013-06-18 03:40:00,
2013-06-17 23:45:00,66.9,65.7,29.94,WNW,287,0.0,1.0,96,0.00,,---,0.18,VWS V14.00,2013-06-18 03:45:00,
2013-06-17 23:50:00,66.8,65.9,29.94,WNW,287,0.0,1.0,97,0.00,,---,0.18,VWS V14.00,2013-06-18 03:50:00,
2013-06-17 23:55:00,66.8,65.9,29.94,WNW,287,0.0,1.0,97,0.00,,---,0.18,VWS V14.00,2013-06-18 03:55:00,